Location: Unspecified
(33.9239°N, 118.0544°W)
Time: 23:58:13
(UTC-07:00)

Resurs 1-4 Rocket - Visible Passes

Search period start: 25 October 2014 00:00
Search period end: 03 November 2014 23:00
Orbit: 801 x 814 km, 98.4° (Epoch: 24 October)

Date Brightness Start Highest point End Pass type
(mag) Time Alt. Az. Time Alt. Az. Time Alt. Az.
25 Oct 3.9 04:01:13 10° NE 04:05:08 28° E 04:05:08 28° E visible
25 Oct 2.8 05:40:58 10° N 05:45:29 29° WNW 05:46:13 28° W visible
26 Oct 4.7 03:37:57 10° NE 03:40:12 15° E 03:40:12 15° E visible
26 Oct 2.2 05:16:07 10° N 05:21:13 50° WNW 05:21:16 50° WNW visible
27 Oct 2.1 04:51:33 10° NNE 04:56:20 73° N 04:56:20 73° N visible
28 Oct 3.0 04:27:17 10° NNE 04:31:23 45° ENE 04:31:23 45° ENE visible
28 Oct 3.5 06:08:37 10° NNW 06:11:49 16° WNW 06:12:27 16° WNW visible
29 Oct 4.0 04:03:20 10° NE 04:06:25 26° ENE 04:06:25 26° ENE visible
29 Oct 2.9 05:43:14 10° NNW 05:47:30 28° WNW 05:47:30 28° WNW visible
30 Oct 4.8 03:39:58 10° NE 03:41:28 14° ENE 03:41:28 14° ENE visible
30 Oct 2.5 05:18:20 10° N 05:22:32 43° NW 05:22:32 43° NW visible
31 Oct 2.6 04:53:45 10° N 04:57:35 49° N 04:57:35 49° N visible
01 Nov 3.4 04:29:26 10° NNE 04:32:37 35° NE 04:32:37 35° NE visible
01 Nov 3.6 06:10:58 10° NNW 06:13:42 15° WNW 06:13:42 15° WNW visible
02 Nov 4.2 03:05:26 10° NE 03:07:40 22° NE 03:07:40 22° NE visible
02 Nov 3.2 04:45:29 10° NNW 04:48:44 24° NW 04:48:44 24° NW visible
03 Nov 4.9 02:41:59 10° NE 02:42:42 12° ENE 02:42:42 12° ENE visible
03 Nov 3.0 04:20:33 10° N 04:23:46 33° NNW 04:23:46 33° NNW visible
